Zurück zum Katalog

EUTE KA SAT 9A

KA SAT

AktivKommunikationGEO
NORAD 37258·PAYLOAD·🇪🇺 EU

Gestartet Dec 26, 2010 von Baikonur Cosmodrome

Loading…

TLE

AktuellSource: Space-Track

Epoche: Sep 14, 2026, 07:00 UTC

1 37258U 10069A   26257.29180439  .00000053  00000-0  00000-0 0  9997
2 37258   0.0739 352.4829 0005406 178.1302 296.7216  1.00271766 44906

Verfolge EUTE KA SAT 9A in Echtzeit mit AllMySat

Download on the App Store